Location: Ferchesar
(52.6477°N, 12.4298°E)
Time: 16:11:23
(UTC+01:00)

Vanguard 1 - All Passes

Search period start: 27 February 2021 00:00
Search period end: 09 March 2021 00:00
Orbit: 649 x 3833 km, 34.2° (Epoch: 26 February)

Date Brightness Start Highest point End Pass type
(mag) Time Alt. Az. Time Alt. Az. Time Alt. Az.
27 Feb - 06:21:27 10° S 06:22:57 11° SSE 06:24:36 10° SSE visible
27 Feb - 08:39:30 10° SSW 08:42:04 12° S 08:45:06 10° SSE daylight
28 Feb - 06:41:48 10° SSW 06:43:25 11° S 06:45:12 10° SSE daylight
01 Mar - 07:02:42 10° SSW 07:03:55 11° S 07:05:13 10° SSE daylight
